Home   Weather   Norwalk   Past weeks
Flag for USA

Past Weather in Norwalk, California, USA — Yesterday and Last 2 Weeks

Now
60 °F

Passing clouds.


Feels Like: 60 °F
Forecast: 64 / 54 °F
Wind: 7 mph from South

Location: Fullerton Municipal Airport

Current Time: Mar 19, 2019 at 10:23:27 pm

Latest Report: Mar 19, 2019 at 9:02 pm


Visibility: 10 mi

Pressure: 29.99 "Hg

Humidity: 72%

Dew Point: 51 °F

Location of NorwalkLocation

Past Weather in Norwalk — Graph

°F

Norwalk Temperature Yesterday

Maximum temperature yesterday: 75 °F (at 1:53 pm)
Minimum temperature yesterday: 53 °F (at 5:53 am)
Average temperature yesterday: 64 °F

High & Low Weather Summary for the Past Weeks

 TemperatureHumidityPressure
High86 °F (Mar 17, 2:53 pm)93% (Mar 6, 11:08 am)30.19 "Hg (Mar 6, 11:08 am)
Low47 °F (Mar 5, 4:53 am)12% (Mar 14, 12:53 pm)29.73 "Hg (Mar 12, 3:53 pm)
Average59 °F59%29.97 "Hg
* Reported Mar 4 8:53 pm — Mar 19 9:02 pm, Norwalk. Weather by CustomWeather, © 2019

Note: Actual official high and low records may vary slightly from our data, if they occured in-between our weather recording intervals... More about our weather records

Advertising

Norwalk Weather History for the Previous 24 Hours

Scroll right to see more
 ConditionsComfort  
Time TempWeatherWind HumidityBarometerVisibility
9:02 pm
Tue, Mar 19
60 °FPassing clouds.7 mph72%29.99 "Hg10 mi
8:34 pm60 °FPassing clouds.9 mph72%29.98 "Hg10 mi
8:01 pm61 °FPassing clouds.7 mph67%29.96 "Hg10 mi
6:53 pm61 °FPassing clouds.5 mph70%29.95 "Hg10 mi
6:02 pm61 °FScattered clouds.7 mph70%29.94 "Hg10 mi
5:53 pm62 °FPartly sunny.6 mph67%29.93 "Hg10 mi
4:53 pm64 °FSunny.8 mph63%29.92 "Hg10 mi
3:53 pm65 °FSunny.6 mph61%29.91 "Hg10 mi
2:53 pm67 °FPartly sunny.7 mph57%29.93 "Hg10 mi
1:53 pm66 °FPartly sunny.8 mph61%29.95 "Hg10 mi
12:53 pm66 °FSunny.9 mph61%29.96 "Hg10 mi
11:53 am65 °FPartly sunny.12 mph66%29.96 "Hg10 mi
10:53 am63 °FPartly sunny.3 mph68%29.98 "Hg5 mi
10:00 am59 °FHaze.5 mph78%29.98 "Hg3 mi
9:30 am57 °FLow clouds.3 mph83%29.98 "Hg3 mi
8:53 am55 °FFog.6 mph87%29.98 "Hg2 mi
7:53 am54 °FFog.No wind90%29.97 "Hg1 mi
7:31 am53 °FFog.No wind93%29.96 "Hg1 mi
7:05 am53 °FFog.5 mph89%29.96 "Hg0 mi
5:53 am53 °FClear.No wind74%29.92 "Hg10 mi
4:53 am54 °FPassing clouds.No wind83%29.92 "Hg8 mi
3:53 am55 °FLow clouds.No wind83%29.94 "Hg9 mi
3:32 am55 °FPassing clouds.No wind83%29.95 "Hg9 mi
2:53 am55 °FClear.No wind83%29.96 "Hg8 mi
1:53 am56 °FClear.No wind81%29.95 "Hg10 mi
12:53 am57 °FClear.No wind81%29.96 "Hg10 mi
11:53 pm
Mon, Mar 18
57 °FClear.No wind83%29.97 "Hg10 mi
10:53 pm58 °FClear.3 mph84%29.98 "Hg10 mi
Weather by CustomWeather, © 2019

See weather overview